Date,Time,WBGT,Tg
2024/5/1,1:00,16.0,16.4
2024/5/1,2:00,16.0,16.1
2024/5/1,3:00,15.8,15.8
2024/5/1,4:00,15.6,15.6
2024/5/1,5:00,15.6,15.2
2024/5/1,6:00,15.6,15.8
2024/5/1,7:00,15.9,17.6
2024/5/1,8:00,16.0,19.2
2024/5/1,9:00,16.0,20.0
2024/5/1,10:00,16.0,20.7
2024/5/1,11:00,16.3,21.7
2024/5/1,12:00,16.4,22.1
2024/5/1,13:00,16.6,22.0
2024/5/1,14:00,16.2,21.5
2024/5/1,15:00,15.4,20.2
2024/5/1,16:00,15.0,18.6
2024/5/1,17:00,14.3,16.9
2024/5/1,18:00,13.8,14.9
2024/5/1,19:00,13.3,12.8
2024/5/1,20:00,13.5,13.5
2024/5/1,21:00,13.5,13.5
2024/5/1,22:00,13.3,13.5
2024/5/1,23:00,13.0,13.4
2024/5/1,24:00,12.6,12.6
2024/5/2,1:00,12.2,12.4
2024/5/2,2:00,11.8,12.0
2024/5/2,3:00,11.5,11.3
2024/5/2,4:00,10.8,10.5
2024/5/2,5:00,9.9,9.7
2024/5/2,6:00,9.7,10.0
2024/5/2,7:00,13.2,20.4
2024/5/2,8:00,14.8,26.3
2024/5/2,9:00,15.0,28.7
2024/5/2,10:00,15.2,30.4
2024/5/2,11:00,15.5,30.6
2024/5/2,12:00,15.4,31.1
2024/5/2,13:00,16.6,31.9
2024/5/2,14:00,15.6,31.8
2024/5/2,15:00,16.3,31.8
2024/5/2,16:00,16.3,30.3
2024/5/2,17:00,15.5,26.8
2024/5/2,18:00,14.8,21.9
2024/5/2,19:00,13.4,14.0
2024/5/2,20:00,13.5,14.5
2024/5/2,21:00,13.8,14.2
2024/5/2,22:00,13.3,13.4
2024/5/2,23:00,13.1,13.1
2024/5/2,24:00,12.3,12.3
2024/5/3,1:00,11.5,11.3
2024/5/3,2:00,11.2,11.0
2024/5/3,3:00,11.1,10.7
2024/5/3,4:00,10.9,10.7
2024/5/3,5:00,11.0,10.7
2024/5/3,6:00,11.1,11.3
2024/5/3,7:00,14.6,21.5
2024/5/3,8:00,16.9,28.3
2024/5/3,9:00,19.0,33.1
2024/5/3,10:00,19.6,35.9
2024/5/3,11:00,21.5,39.0
2024/5/3,12:00,21.5,38.4
2024/5/3,13:00,21.4,39.0
2024/5/3,14:00,21.3,38.6
2024/5/3,15:00,21.7,39.8
2024/5/3,16:00,21.6,38.7
2024/5/3,17:00,20.5,33.7
2024/5/3,18:00,18.7,25.9
2024/5/3,19:00,16.4,17.3
2024/5/3,20:00,16.3,17.0
2024/5/3,21:00,15.8,16.1
2024/5/3,22:00,15.5,15.5
2024/5/3,23:00,14.4,14.4
2024/5/3,24:00,14.5,14.5
2024/5/4,1:00,13.9,13.9
2024/5/4,2:00,13.4,13.4
2024/5/4,3:00,13.1,13.1
2024/5/4,4:00,13.4,13.4
2024/5/4,5:00,13.1,13.1
2024/5/4,6:00,14.0,16.4
2024/5/4,7:00,18.6,26.3
2024/5/4,8:00,20.6,32.2
2024/5/4,9:00,21.8,36.1
2024/5/4,10:00,23.0,39.6
2024/5/4,11:00,23.2,42.6
2024/5/4,12:00,23.0,42.9
2024/5/4,13:00,24.3,43.8
2024/5/4,14:00,23.6,41.7
2024/5/4,15:00,24.4,43.2
2024/5/4,16:00,23.3,40.0
2024/5/4,17:00,22.9,37.3
2024/5/4,18:00,20.7,25.9
2024/5/4,19:00,19.6,22.7
2024/5/4,20:00,19.5,21.5
2024/5/4,21:00,19.5,20.6
2024/5/4,22:00,19.2,19.9
2024/5/4,23:00,18.7,19.2
2024/5/4,24:00,18.9,19.6
2024/5/5,1:00,18.6,19.2
2024/5/5,2:00,18.1,18.5
2024/5/5,3:00,17.0,17.9
2024/5/5,4:00,16.5,17.7
2024/5/5,5:00,16.1,16.8
2024/5/5,6:00,16.0,17.6
2024/5/5,7:00,18.7,27.7
2024/5/5,8:00,18.1,22.8
2024/5/5,9:00,19.8,25.7
2024/5/5,10:00,21.0,28.7
2024/5/5,11:00,23.2,40.3
2024/5/5,12:00,20.8,32.1
2024/5/5,13:00,21.4,32.0
2024/5/5,14:00,20.7,30.3
2024/5/5,15:00,19.7,27.4
2024/5/5,16:00,19.7,25.7
2024/5/5,17:00,20.5,24.5
2024/5/5,18:00,20.0,22.2
2024/5/5,19:00,19.1,19.7
2024/5/5,20:00,18.0,19.6
2024/5/5,21:00,17.5,19.4
2024/5/5,22:00,16.9,18.9
2024/5/5,23:00,17.0,18.9
2024/5/5,24:00,17.2,20.0
2024/5/6,1:00,17.3,17.3
2024/5/6,2:00,17.2,16.9
2024/5/6,3:00,17.2,17.2
2024/5/6,4:00,17.8,17.5
2024/5/6,5:00,18.0,17.7
2024/5/6,6:00,18.6,18.7
2024/5/6,7:00,19.2,21.0
2024/5/6,8:00,20.5,24.6
2024/5/6,9:00,24.1,36.8
2024/5/6,10:00,23.1,28.8
2024/5/6,11:00,23.4,30.1
2024/5/6,12:00,24.2,31.4
2024/5/6,13:00,22.3,28.6
2024/5/6,14:00,21.9,28.4
2024/5/6,15:00,20.5,25.9
2024/5/6,16:00,19.5,23.7
2024/5/6,17:00,19.0,22.6
2024/5/6,18:00,18.3,20.2
2024/5/6,19:00,17.5,17.9
2024/5/6,20:00,17.3,17.5
2024/5/6,21:00,17.3,17.3
2024/5/6,22:00,16.8,16.7
2024/5/6,23:00,16.6,16.6
2024/5/6,24:00,16.6,16.9
2024/5/7,1:00,16.3,16.8
2024/5/7,2:00,16.6,17.1
2024/5/7,3:00,16.6,16.9
2024/5/7,4:00,16.8,17.1
2024/5/7,5:00,16.6,16.8
2024/5/7,6:00,16.9,17.7
2024/5/7,7:00,17.3,19.5
2024/5/7,8:00,17.6,21.0
2024/5/7,9:00,17.9,22.5
2024/5/7,10:00,20.1,33.0
2024/5/7,11:00,20.8,33.9
2024/5/7,12:00,19.8,32.8
2024/5/7,13:00,19.8,33.3
2024/5/7,14:00,17.6,24.0
2024/5/7,15:00,17.3,22.7
2024/5/7,16:00,17.5,22.0
2024/5/7,17:00,18.7,28.1
2024/5/7,18:00,17.0,19.1
2024/5/7,19:00,15.9,15.9
2024/5/7,20:00,15.4,15.7
2024/5/7,21:00,15.5,15.5
2024/5/7,22:00,14.6,14.5
2024/5/7,23:00,14.7,14.9
2024/5/7,24:00,14.3,14.1
2024/5/8,1:00,14.0,13.7
2024/5/8,2:00,13.7,13.7
2024/5/8,3:00,13.7,13.8
2024/5/8,4:00,13.8,13.7
2024/5/8,5:00,13.6,13.6
2024/5/8,6:00,13.5,14.0
2024/5/8,7:00,14.1,16.3
2024/5/8,8:00,14.3,17.6
2024/5/8,9:00,14.8,19.9
2024/5/8,10:00,15.1,21.0
2024/5/8,11:00,15.3,21.9
2024/5/8,12:00,15.0,21.5
2024/5/8,13:00,15.0,21.0
2024/5/8,14:00,14.6,20.8
2024/5/8,15:00,13.8,19.9
2024/5/8,16:00,15.4,28.0
2024/5/8,17:00,12.9,16.9
2024/5/8,18:00,12.0,14.5
2024/5/8,19:00,11.2,11.9
2024/5/8,20:00,11.1,12.0
2024/5/8,21:00,10.9,11.8
2024/5/8,22:00,10.5,11.8
2024/5/8,23:00,10.5,11.7
2024/5/8,24:00,10.2,11.5
2024/5/9,1:00,9.7,11.0
2024/5/9,2:00,10.0,11.9
2024/5/9,3:00,9.7,11.8
2024/5/9,4:00,9.6,12.2
2024/5/9,5:00,9.9,9.8
2024/5/9,6:00,10.3,12.8
2024/5/9,7:00,12.9,21.3
2024/5/9,8:00,13.9,27.7
2024/5/9,9:00,14.8,30.7
2024/5/9,10:00,14.6,32.0
2024/5/9,11:00,15.6,32.9
2024/5/9,12:00,15.0,32.5
2024/5/9,13:00,15.3,33.6
2024/5/9,14:00,16.0,35.1
2024/5/9,15:00,15.7,36.0
2024/5/9,16:00,16.1,33.8
2024/5/9,17:00,15.0,31.7
2024/5/9,18:00,14.4,23.9
2024/5/9,19:00,12.6,15.7
2024/5/9,20:00,11.9,12.8
2024/5/9,21:00,11.8,12.0
2024/5/9,22:00,11.4,11.6
2024/5/9,23:00,10.9,10.8
2024/5/9,24:00,11.0,10.9
2024/5/10,1:00,10.0,9.9
2024/5/10,2:00,9.7,9.6
2024/5/10,3:00,9.3,9.1
2024/5/10,4:00,9.1,8.8
2024/5/10,5:00,6.6,7.6
2024/5/10,6:00,7.5,12.2
2024/5/10,7:00,12.6,20.9
2024/5/10,8:00,15.5,29.8
2024/5/10,9:00,16.4,36.2
2024/5/10,10:00,18.3,41.3
2024/5/10,11:00,19.2,42.0
2024/5/10,12:00,19.1,43.1
2024/5/10,13:00,19.5,42.2
2024/5/10,14:00,18.8,41.5
2024/5/10,15:00,19.1,41.5
2024/5/10,16:00,18.5,39.8
2024/5/10,17:00,19.0,36.8
2024/5/10,18:00,17.6,28.4
2024/5/10,19:00,16.4,18.5
2024/5/10,20:00,15.9,16.7
2024/5/10,21:00,15.0,15.6
2024/5/10,22:00,14.4,14.6
2024/5/10,23:00,14.0,14.2
2024/5/10,24:00,13.5,13.6
2024/5/11,1:00,13.0,13.0
2024/5/11,2:00,13.0,13.0
2024/5/11,3:00,12.8,12.8
2024/5/11,4:00,12.7,12.7
2024/5/11,5:00,12.7,12.7
2024/5/11,6:00,14.1,17.2
2024/5/11,7:00,17.9,26.4
2024/5/11,8:00,21.3,34.4
2024/5/11,9:00,20.6,37.2
2024/5/11,10:00,21.4,39.1
2024/5/11,11:00,21.8,40.0
2024/5/11,12:00,22.6,42.4
2024/5/11,13:00,20.6,33.7
2024/5/11,14:00,22.5,42.3
2024/5/11,15:00,20.8,32.6
2024/5/11,16:00,20.4,32.3
2024/5/11,17:00,20.4,30.6
2024/5/11,18:00,19.2,27.3
2024/5/11,19:00,18.4,22.5
2024/5/11,20:00,18.0,21.4
2024/5/11,21:00,18.3,23.2
2024/5/11,22:00,18.3,21.7
2024/5/11,23:00,18.3,21.9
2024/5/11,24:00,18.0,19.5
2024/5/12,1:00,18.2,18.8
2024/5/12,2:00,18.1,18.3
2024/5/12,3:00,18.0,18.0
2024/5/12,4:00,17.8,17.8
2024/5/12,5:00,17.9,17.9
2024/5/12,6:00,18.0,18.9
2024/5/12,7:00,19.2,21.8
2024/5/12,8:00,19.2,23.3
2024/5/12,9:00,19.5,24.3
2024/5/12,10:00,20.3,26.1
2024/5/12,11:00,21.2,27.4
2024/5/12,12:00,21.4,28.1
2024/5/12,13:00,21.8,28.3
2024/5/12,14:00,21.9,28.3
2024/5/12,15:00,22.0,27.6
2024/5/12,16:00,21.3,25.9
2024/5/12,17:00,20.9,24.3
2024/5/12,18:00,19.8,21.7
2024/5/12,19:00,18.9,19.1
2024/5/12,20:00,18.3,18.3
2024/5/12,21:00,18.1,18.1
2024/5/12,22:00,18.1,18.1
2024/5/12,23:00,18.1,18.1
2024/5/12,24:00,18.0,18.0
2024/5/13,1:00,18.1,18.1
2024/5/13,2:00,17.8,17.8
2024/5/13,3:00,17.3,17.3
2024/5/13,4:00,16.9,16.9
2024/5/13,5:00,16.3,16.5
2024/5/13,6:00,16.5,17.6
2024/5/13,7:00,15.5,18.9
2024/5/13,8:00,17.3,29.0
2024/5/13,9:00,17.9,30.6
2024/5/13,10:00,18.9,32.0
2024/5/13,11:00,19.5,32.7
2024/5/13,12:00,19.4,32.7
2024/5/13,13:00,19.2,33.0
2024/5/13,14:00,18.3,34.7
2024/5/13,15:00,18.6,34.8
2024/5/13,16:00,18.0,34.3
2024/5/13,17:00,16.5,31.2
2024/5/13,18:00,16.7,23.9
2024/5/13,19:00,13.9,17.1
2024/5/13,20:00,13.7,15.1
2024/5/13,21:00,12.7,15.9
2024/5/13,22:00,12.3,13.0
2024/5/13,23:00,12.2,12.1
2024/5/13,24:00,11.1,10.9
2024/5/14,1:00,10.8,10.6
2024/5/14,2:00,10.2,10.0
2024/5/14,3:00,9.8,9.5
2024/5/14,4:00,9.3,9.0
2024/5/14,5:00,9.0,8.6
2024/5/14,6:00,10.5,13.5
2024/5/14,7:00,14.1,22.1
2024/5/14,8:00,17.7,29.8
2024/5/14,9:00,18.4,33.5
2024/5/14,10:00,19.8,38.2
2024/5/14,11:00,19.7,42.0
2024/5/14,12:00,17.9,42.6
2024/5/14,13:00,18.9,42.8
2024/5/14,14:00,19.5,39.1
2024/5/14,15:00,20.0,39.1
2024/5/14,16:00,19.1,38.2
2024/5/14,17:00,17.7,36.3
2024/5/14,18:00,15.6,31.1
2024/5/14,19:00,14.3,19.9
2024/5/14,20:00,12.5,15.5
2024/5/14,21:00,12.0,13.8
2024/5/14,22:00,12.6,13.1
2024/5/14,23:00,11.6,11.9
2024/5/14,24:00,11.2,11.4
2024/5/15,1:00,8.1,11.6
2024/5/15,2:00,8.3,10.8
2024/5/15,3:00,8.6,10.4
2024/5/15,4:00,8.1,9.8
2024/5/15,5:00,8.4,10.0
2024/5/15,6:00,10.5,11.0
2024/5/15,7:00,14.5,22.3
2024/5/15,8:00,16.8,27.8
2024/5/15,9:00,18.8,34.8
2024/5/15,10:00,19.9,36.5
2024/5/15,11:00,18.5,40.7
2024/5/15,12:00,19.2,40.8
2024/5/15,13:00,18.1,39.6
2024/5/15,14:00,19.4,39.9
2024/5/15,15:00,19.6,40.3
2024/5/15,16:00,18.7,39.0
2024/5/15,17:00,18.1,35.2
2024/5/15,18:00,17.5,27.6
2024/5/15,19:00,15.4,19.3
2024/5/15,20:00,14.4,17.2
2024/5/15,21:00,13.9,16.4
2024/5/15,22:00,13.7,17.2
2024/5/15,23:00,15.3,15.0
2024/5/15,24:00,13.5,12.4
2024/5/16,1:00,11.2,12.1
2024/5/16,2:00,10.9,13.5
2024/5/16,3:00,10.5,13.1
2024/5/16,4:00,10.8,13.8
2024/5/16,5:00,10.6,12.7
2024/5/16,6:00,10.9,13.1
2024/5/16,7:00,11.2,14.4
2024/5/16,8:00,11.9,16.7
2024/5/16,9:00,12.6,19.2
2024/5/16,10:00,13.5,21.9
2024/5/16,11:00,15.8,32.4
2024/5/16,12:00,16.1,34.1
2024/5/16,13:00,17.3,35.4
2024/5/16,14:00,16.7,34.8
2024/5/16,15:00,17.3,34.4
2024/5/16,16:00,17.1,34.5
2024/5/16,17:00,16.6,32.0
2024/5/16,18:00,15.3,26.8
2024/5/16,19:00,14.3,18.9
2024/5/16,20:00,14.0,17.7
2024/5/16,21:00,13.6,17.8
2024/5/16,22:00,13.9,18.1
2024/5/16,23:00,14.1,17.2
2024/5/16,24:00,14.4,17.0
2024/5/17,1:00,14.5,16.4
2024/5/17,2:00,14.5,16.3
2024/5/17,3:00,14.6,16.5
2024/5/17,4:00,13.6,15.6
2024/5/17,5:00,12.7,15.1
2024/5/17,6:00,13.8,20.0
2024/5/17,7:00,16.1,28.2
2024/5/17,8:00,17.9,33.3
2024/5/17,9:00,18.2,37.9
2024/5/17,10:00,18.3,40.6
2024/5/17,11:00,18.7,42.5
2024/5/17,12:00,,
2024/5/17,13:00,,
2024/5/17,14:00,,
2024/5/17,15:00,,
2024/5/17,16:00,,
2024/5/17,17:00,,
2024/5/17,18:00,,
2024/5/17,19:00,,
2024/5/17,20:00,,
2024/5/17,21:00,,
2024/5/17,22:00,,
2024/5/17,23:00,,
2024/5/17,24:00,,
